When you browse on this site, cookies collect data to enhance your experience and personalize the content and advertising you see.
Visit our Privacy Policy to learn more. By continuing to use the site, you agree to this use of cookies and data.
  • In Österreich
  • Länderverzeichnis
  • Für 7 Tage
  • Wassertemperatur
  • Wetterkarte
  • News
  • Widgets
  • user-avatar
    Anmelden

    Stündliche Wetter Silvia

    Heute, 25 Januar, Samstag

    Zeit Temperatur Niederschläge Wind Luftdruck Luftfeuchtigkeit
    00:00 +12°C° 0.3 mm 0 m/S 561 mmHg 97%
    01:00 +11°C° 0.3 mm 0 m/S 560 mmHg 97%
    02:00 +11°C° 0 mm 0 m/S 560 mmHg 97%
    03:00 +11°C° 0 mm 0 m/S 560 mmHg 97%
    04:00 +11°C° 0 mm 0 m/S 560 mmHg 96%
    05:00 +11°C° 0 mm 0 m/S 560 mmHg 96%
    06:00 +12°C° 0 mm 0 m/S 561 mmHg 96%
    07:00 +12°C° 0 mm 0 m/S 561 mmHg 95%
    08:00 +13°C° 0.1 mm 0 m/S 562 mmHg 91%
    09:00 +15°C° 0.1 mm 0 m/S 563 mmHg 86%
    10:00 +16°C° 0.1 mm 0 m/S 564 mmHg 82%
    11:00 +17°C° 1.2 mm 0 m/S 564 mmHg 83%
    12:00 +17°C° 1.2 mm 0 m/S 563 mmHg 85%
    13:00 +17°C° 1.2 mm 0 m/S 562 mmHg 86%
    14:00 +17°C° 2 mm 0 m/S 562 mmHg 89%
    15:00 +16°C° 2 mm 0 m/S 561 mmHg 91%
    16:00 +16°C° 2 mm 0 m/S 560 mmHg 93%
    17:00 +15°C° 1.2 mm 0 m/S 560 mmHg 95%
    18:00 +14°C° 1.2 mm 0 m/S 560 mmHg 96%
    19:00 +13°C° 1.2 mm 0 m/S 560 mmHg 98%
    20:00 +13°C° 0.3 mm 0 m/S 560 mmHg 98%
    21:00 +12°C° 0.3 mm 0 m/S 561 mmHg 98%
    22:00 +12°C° 0.3 mm 0 m/S 561 mmHg 98%
    23:00 +12°C° 0.1 mm 0 m/S 561 mmHg 98%

    Morgen, 26 Januar, Sonntag

    Zeit Temperatur Niederschläge Wind Luftdruck Luftfeuchtigkeit
    00:00 +12°C° 0.1 mm 0 m/S 561 mmHg 98%
    01:00 +12°C° 0.1 mm 0 m/S 561 mmHg 98%
    02:00 +12°C° 0.3 mm 0 m/S 561 mmHg 98%
    03:00 +12°C° 0.3 mm 0 m/S 560 mmHg 98%
    04:00 +12°C° 0.3 mm 0 m/S 560 mmHg 99%
    05:00 +12°C° 0.4 mm 0 m/S 560 mmHg 98%
    06:00 +12°C° 0.4 mm 0 m/S 561 mmHg 98%
    07:00 +12°C° 0.4 mm 0 m/S 561 mmHg 98%
    08:00 +13°C° 0.5 mm 0 m/S 562 mmHg 97%
    09:00 +14°C° 0.5 mm 0 m/S 563 mmHg 95%
    10:00 +15°C° 0.5 mm 0 m/S 563 mmHg 93%
    11:00 +15°C° 1 mm 0 m/S 563 mmHg 92%
    12:00 +18°C° 1 mm 1 m/S 563 mmHg 91%
    13:00 +18°C° 1 mm 1 m/S 562 mmHg 90%
    14:00 +18°C° 1.7 mm 1 m/S 562 mmHg 91%
    15:00 +16°C° 1.7 mm 1 m/S 561 mmHg 93%
    16:00 +16°C° 1.7 mm 1 m/S 561 mmHg 94%
    17:00 +15°C° 1.1 mm 1 m/S 561 mmHg 95%
    18:00 +13°C° 1.1 mm 0 m/S 561 mmHg 97%
    19:00 +13°C° 1.1 mm 0 m/S 561 mmHg 98%
    20:00 +12°C° 0.6 mm 0 m/S 561 mmHg 98%
    21:00 +12°C° 0.6 mm 0 m/S 561 mmHg 98%
    22:00 +12°C° 0.6 mm 0 m/S 562 mmHg 98%
    23:00 +12°C° 0.4 mm 0 m/S 561 mmHg 98%

    übermorgen, 27 Januar, Montag

    Zeit Temperatur Niederschläge Wind Luftdruck Luftfeuchtigkeit
    00:00 +12°C° 0.4 mm 0 m/S 561 mmHg 98%
    01:00 +12°C° 0.4 mm 0 m/S 561 mmHg 99%
    02:00 +12°C° 0.4 mm 0 m/S 561 mmHg 99%
    03:00 +12°C° 0.4 mm 0 m/S 560 mmHg 99%
    04:00 +12°C° 0.4 mm 0 m/S 560 mmHg 99%
    05:00 +12°C° 0.7 mm 0 m/S 560 mmHg 98%
    06:00 +12°C° 0.7 mm 0 m/S 561 mmHg 98%
    07:00 +12°C° 0.7 mm 0 m/S 561 mmHg 98%
    08:00 +12°C° 0.6 mm 0 m/S 562 mmHg 97%
    09:00 +13°C° 0.6 mm 0 m/S 562 mmHg 96%
    10:00 +13°C° 0.6 mm 0 m/S 563 mmHg 96%
    11:00 +13°C° 0.7 mm 0 m/S 562 mmHg 95%
    12:00 +14°C° 0.7 mm 0 m/S 562 mmHg 94%
    13:00 +14°C° 0.7 mm 0 m/S 562 mmHg 93%
    14:00 +14°C° 0.4 mm 0 m/S 561 mmHg 92%
    15:00 +14°C° 0.4 mm 0 m/S 561 mmHg 91%
    16:00 +14°C° 0.4 mm 0 m/S 560 mmHg 89%
    17:00 +14°C° 0.3 mm 0 m/S 560 mmHg 92%
    18:00 +13°C° 0.3 mm 0 m/S 560 mmHg 95%
    19:00 +12°C° 0.3 mm 0 m/S 560 mmHg 98%
    20:00 +12°C° 0.1 mm 0 m/S 560 mmHg 98%
    21:00 +11°C° 0.1 mm 0 m/S 560 mmHg 97%
    22:00 +11°C° 0.1 mm 0 m/S 561 mmHg 97%
    23:00 +11°C° 0 mm 0 m/S 560 mmHg 97%

    28 Januar, Dienstag

    Zeit Temperatur Niederschläge Wind Luftdruck Luftfeuchtigkeit
    00:00 +12°C° 0 mm 1 m/S 560 mmHg 97%
    01:00 +12°C° 0 mm 1 m/S 560 mmHg 97%
    02:00 +12°C° 0 mm 1 m/S 560 mmHg 97%
    03:00 +12°C° 0 mm 1 m/S 560 mmHg 97%
    04:00 +12°C° 0 mm 1 m/S 559 mmHg 97%
    05:00 +11°C° 0 mm 0 m/S 560 mmHg 97%
    06:00 +11°C° 0 mm 0 m/S 560 mmHg 96%
    07:00 +11°C° 0 mm 0 m/S 561 mmHg 96%
    08:00 +13°C° 0 mm 0 m/S 562 mmHg 87%
    09:00 +16°C° 0 mm 1 m/S 563 mmHg 78%
    10:00 +19°C° 0 mm 1 m/S 564 mmHg 69%
    11:00 +20°C° 0.3 mm 1 m/S 564 mmHg 69%
    12:00 +20°C° 0.3 mm 1 m/S 564 mmHg 68%
    13:00 +21°C° 0.3 mm 1 m/S 563 mmHg 67%
    14:00 +20°C° 0.9 mm 1 m/S 562 mmHg 74%
    15:00 +19°C° 0.9 mm 1 m/S 561 mmHg 80%
    16:00 +16°C° 0.9 mm 0 m/S 560 mmHg 86%
    17:00 +15°C° 0.5 mm 0 m/S 560 mmHg 90%
    18:00 +13°C° 0.5 mm 0 m/S 560 mmHg 94%
    19:00 +12°C° 0.5 mm 0 m/S 560 mmHg 98%
    20:00 +12°C° 0.1 mm 0 m/S 560 mmHg 98%
    21:00 +12°C° 0.1 mm 0 m/S 560 mmHg 98%
    22:00 +12°C° 0.1 mm 0 m/S 560 mmHg 98%
    23:00 +12°C° 0.2 mm 0 m/S 560 mmHg 98%

    29 Januar, Mittwoch

    Zeit Temperatur Niederschläge Wind Luftdruck Luftfeuchtigkeit
    00:00 +11°C° 0.2 mm 0 m/S 560 mmHg 98%
    01:00 +11°C° 0.2 mm 0 m/S 560 mmHg 98%
    02:00 +11°C° 0.5 mm 0 m/S 560 mmHg 98%
    03:00 +11°C° 0.5 mm 0 m/S 559 mmHg 98%
    04:00 +11°C° 0.5 mm 0 m/S 559 mmHg 98%
    05:00 +11°C° 0.3 mm 0 m/S 560 mmHg 98%
    06:00 +11°C° 0.3 mm 0 m/S 560 mmHg 97%
    07:00 +11°C° 0.3 mm 0 m/S 561 mmHg 97%
    08:00 +13°C° 0.1 mm 0 m/S 562 mmHg 89%
    09:00 +16°C° 0.1 mm 1 m/S 563 mmHg 82%
    10:00 +19°C° 0.1 mm 1 m/S 564 mmHg 75%
    11:00 +19°C° 0.6 mm 1 m/S 563 mmHg 76%
    12:00 +19°C° 0.6 mm 1 m/S 563 mmHg 76%
    13:00 +19°C° 0.6 mm 1 m/S 562 mmHg 77%
    14:00 +19°C° 1 mm 1 m/S 561 mmHg 82%
    15:00 +18°C° 1 mm 1 m/S 560 mmHg 87%
    16:00 +15°C° 1 mm 0 m/S 560 mmHg 92%
    17:00 +14°C° 0.3 mm 0 m/S 560 mmHg 94%
    18:00 +13°C° 0.3 mm 0 m/S 559 mmHg 96%
    19:00 +12°C° 0.3 mm 0 m/S 559 mmHg 98%
    20:00 +12°C° 0 mm 0 m/S 560 mmHg 97%
    21:00 +11°C° 0 mm 0 m/S 560 mmHg 97%
    22:00 +11°C° 0 mm 0 m/S 560 mmHg 97%
    23:00 +11°C° 0 mm 0 m/S 560 mmHg 96%

    30 Januar, Donnerstag

    Zeit Temperatur Niederschläge Wind Luftdruck Luftfeuchtigkeit
    00:00 +11°C° 0 mm 0 m/S 559 mmHg 96%
    01:00 +11°C° 0 mm 0 m/S 559 mmHg 96%
    02:00 +11°C° 0 mm 0 m/S 559 mmHg 95%
    03:00 +10°C° 0 mm 0 m/S 559 mmHg 95%
    04:00 +10°C° 0 mm 0 m/S 558 mmHg 95%
    05:00 +10°C° 0 mm 0 m/S 559 mmHg 95%
    06:00 +10°C° 0 mm 0 m/S 559 mmHg 95%
    07:00 +10°C° 0 mm 0 m/S 560 mmHg 94%
    08:00 +14°C° 0 mm 1 m/S 561 mmHg 84%
    09:00 +18°C° 0 mm 1 m/S 563 mmHg 74%
    10:00 +20°C° 0 mm 1 m/S 564 mmHg 63%
    11:00 +20°C° 0.4 mm 1 m/S 564 mmHg 66%
    12:00 +21°C° 0.4 mm 1 m/S 563 mmHg 68%
    13:00 +21°C° 0.4 mm 1 m/S 563 mmHg 71%
    14:00 +20°C° 1.2 mm 1 m/S 562 mmHg 77%
    15:00 +19°C° 1.2 mm 1 m/S 561 mmHg 83%
    16:00 +18°C° 1.2 mm 1 m/S 560 mmHg 89%
    17:00 +16°C° 0.5 mm 1 m/S 560 mmHg 92%
    18:00 +14°C° 0.5 mm 1 m/S 559 mmHg 95%
    19:00 +13°C° 0.5 mm 1 m/S 559 mmHg 97%
    20:00 +13°C° 0 mm 1 m/S 559 mmHg 97%
    21:00 +12°C° 0 mm 1 m/S 559 mmHg 96%
    22:00 +12°C° 0 mm 1 m/S 559 mmHg 95%
    23:00 +12°C° 0 mm 1 m/S 559 mmHg 95%
    Mehr zeigen